Location: Stanford
(52.2833°N, 2.4333°W)
Time: 23:30:37
(UTC+00:00)

NOSS 3-1 (C) - Pass Details

Date: 22 January 2021
Orbit: 723 x 1485 km, 63.3° (Epoch: 22 February)

Event Time Altitude Azimuth Distance (km) Brightness Sun altitude
Rises 17:49:57 0° 310° (NW) 3,761 7.0 -10.7°
Reaches altitude 10° 17:52:25 10° 314° (NW) 2,910 6.4 -11.0°
Maximum altitude 17:59:24 63° 35° (NE) 1,358 4.0 -12.0°
Drops below altitude 10° 18:07:44 10° 116° (ESE) 3,440 5.9 -13.3°
Enters shadow 18:09:45 - 119° (ESE) 4,116 6.3 -13.6°
